Terminal Aerodrome Forecast
Issued by NWS

Home | Current Version | Previous Version | Graphics & Text | Print | Product List | Glossary On
Versions: 1 2 3 4 5 6 7 8 9 10 11 12 13 14 15 16 17 18 19 20 21 22 23 24 25 26 27 28
000
FTUS43 KBIS 240021 AAA
TAFJMS
TAF AMD
KJMS 240021Z 2400/2424 00000KT P6SM VCSH BKN025 OVC060
     FM240500 35008KT P6SM BKN040
     FM240700 35009KT P6SM BKN025
     FM241400 36011KT P6SM BKN015
     FM241600 01010KT P6SM SCT070=

USA.gov is the U.S. government's official web portal to all federal, state and local government web resources and services.